Temperature
22 22 22 22 22 23 23 24 25 25 25 25 25 25 24 22 21 19 19 19 19 18 18 18 18 18 18 18 18 18 18 18 18 18 18 18 18 18 18 18 18 18 18 18 18 18 18 18 18
22 22 22 22 23 23 23 25 25 25 25 25 25 24 23 22 20 19 19 19 19 18 18 18 18 18 18 18 18 18 18 18 18 18 18 18 18 18 17 17 17 17 17 18 18 18 18 18 18
22 22 23 23 24 23 24 24 25 25 25 25 24 23 22 21 20 19 19 19 18 18 18 18 18 18 18 18 18 18 18 18 18 18 17 18 17 17 17 17 17 17 17 18 18 18 18 18 18
22 23 24 24 24 25 25 25 25 25 25 25 24 23 21 21 20 19 19 19 18 18 18 18 18 18 18 18 18 18 17 17 17 17 17 17 17 17 17 17 17 17 17 18 18 18 18 18 17
23 24 24 24 24 25 25 26 26 25 25 25 24 22 20 20 20 19 19 19 18 18 18 18 18 18 18 18 18 18 17 17 17 17 17 17 17 17 17 17 17 17 17 17 17 17 17 17 17
24 25 23 23 24 25 26 26 26 25 25 24 24 22 20 20 19 19 19 19 18 18 18 18 18 18 18 18 18 17 17 17 17 17 17 17 17 17 17 17 17 17 17 17 17 17 17 17 17
24 24 24 24 24 24 26 26 26 25 25 24 24 22 20 20 19 19 19 19 18 18 18 18 18 18 17 17 17 17 17 17 17 17 17 17 17 17 17 17 17 17 17 17 17 17 17 17 17
24 24 24 24 24 24 25 25 25 25 24 24 24 22 20 20 19 19 19 19 18 18 18 18 17 17 17 17 17 17 17 17 17 17 17 17 16 16 16 17 16 16 17 17 17 17 17 16 16
24 23 23 24 24 24 25 25 25 24 24 23 23 22 21 20 19 19 19 19 18 18 18 18 17 17 17 17 17 17 17 17 17 17 16 16 16 16 16 16 16 16 16 16 16 16 16 16 16
25 23 24 25 25 25 25 25 25 24 23 23 22 21 20 20 20 19 19 19 19 18 18 18 18 17 17 17 17 17 17 17 17 16 16 16 16 16 16 16 16 16 16 16 16 16 16 16 16
25 24 24 25 25 25 25 24 24 24 23 22 22 21 20 20 20 20 19 19 19 18 18 18 18 17 17 17 17 17 17 17 17 16 16 16 16 16 16 16 16 16 16 16 16 16 16 16 16
25 25 25 25 24 24 24 24 24 23 23 22 22 21 20 20 20 20 19 19 19 19 18 18 18 17 17 17 17 17 16 16 16 16 16 16 16 16 16 16 15 15 15 16 16 16 16 16 16
25 24 24 24 24 24 24 23 23 23 22 22 21 21 20 20 20 20 19 19 19 19 18 18 18 18 17 17 17 17 16 16 16 16 16 16 16 16 16 16 15 15 15 15 15 15 15 15 15
25 24 24 24 24 24 24 23 23 22 22 22 21 21 21 20 20 20 20 19 19 19 18 18 18 17 17 17 17 17 16 16 16 16 16 16 16 16 15 15 15 15 15 15 15 15 15 15 15
24 24 24 24 24 24 23 23 23 22 22 22 21 21 21 20 20 20 20 19 19 19 18 18 18 17 17 17 16 16 16 16 16 16 16 16 15 15 15 15 15 15 15 15 15 15 15 15 15
25 24 23 24 24 24 23 21 23 22 22 22 22 21 20 20 20 20 20 19 19 19 18 18 17 17 17 17 16 16 16 16 16 16 16 16 15 15 15 15 15 15 15 15 15 15 14 14 14
24 23 23 24 25 24 23 22 23 22 22 22 22 21 21 20 20 20 19 19 19 18 18 18 17 17 17 16 16 16 16 16 16 16 16 15 15 15 15 15 15 15 15 14 14 14 14 14 14
24 24 24 24 24 24 23 22 23 23 22 22 22 21 21 20 20 20 19 19 19 18 18 18 17 17 16 16 16 16 16 15 15 15 15 15 15 15 15 15 15 14 14 14 14 14 14 14 14
25 24 24 24 25 24 23 22 23 23 22 22 22 21 21 20 20 20 19 19 19 18 18 18 17 17 16 16 16 16 15 15 15 15 15 15 15 15 15 14 14 14 14 14 14 14 14 14 14
25 24 24 24 25 24 23 23 23 23 23 22 22 22 21 21 20 20 19 18 18 18 17 17 17 17 16 16 16 16 15 15 15 15 15 15 15 15 14 14 14 14 14 14 14 14 14 14 14
25 24 24 23 24 24 23 22 22 23 23 23 22 22 22 21 20 20 19 18 18 18 17 17 17 17 16 16 16 15 15 15 15 15 15 15 15 15 14 14 14 14 14 14 14 14 14 14 14
23 24 24 23 22 22 23 21 22 23 22 22 22 22 22 21 20 20 19 18 18 17 17 17 17 16 16 16 16 15 15 15 15 15 15 14 14 14 14 14 14 14 14 14 13 13 13 13 13
24 24 24 23 22 22 23 22 23 23 22 22 22 22 21 21 20 19 19 18 18 17 17 16 16 16 16 16 16 15 15 15 14 14 14 14 14 14 14 14 14 14 14 13 13 13 13 13 13
24 24 24 23 22 21 23 23 22 22 22 22 22 22 21 21 20 19 19 18 18 17 17 16 16 16 16 16 15 15 15 15 14 14 14 14 14 14 14 14 14 14 13 13 13 13 13 13 13
24 22 21 21 21 21 24 23 22 23 24 23 22 22 21 20 20 19 18 18 17 17 16 16 16 16 16 15 15 15 15 15 14 14 14 14 14 14 14 13 13 13 13 13 13 13 13 13 13
23 23 21 20 21 22 23 23 22 24 23 23 22 21 20 20 19 18 18 17 17 16 16 16 15 15 15 15 15 15 14 14 14 14 14 14 14 13 13 13 13 13 13 13 13 13 13 13 13
22 22 23 22 22 21 22 23 22 23 22 22 22 21 20 20 19 18 17 17 16 16 16 16 15 15 15 15 15 14 14 14 14 14 14 14 14 13 13 13 13 13 13 13 13 13 13 13 13
23 23 22 21 20 20 22 22 21 21 21 21 21 21 20 19 18 18 17 16 16 16 16 15 15 15 15 14 14 14 14 14 14 14 14 13 13 13 13 13 13 13 13 13 12 12 12 12 12
22 22 22 21 21 20 20 20 23 22 22 21 21 20 20 19 18 17 17 16 16 15 15 15 15 14 14 14 14 14 14 14 14 14 13 13 13 13 13 13 13 13 12 12 12 12 12 12 12
22 22 21 20 20 21 20 20 23 22 22 21 21 20 19 19 18 17 16 16 15 15 15 14 14 14 14 14 14 13 13 13 13 13 13 13 13 13 13 13 12 12 12 12 12 12 12 12 11
Wind_Speed
12 12 8 3 3 1 4 5 8 7 7 9 10 10 13 13 9 7 3 3 7 8 10 11 11 12 12 12 12 13 13 13 14 13 13 13 13 13 12 11 11 11 11 10 10 10 10 10 9
11 7 4 3 2 1 4 6 9 9 8 7 8 11 13 12 10 7 3 4 7 9 11 11 11 12 12 12 13 13 13 14 14 14 14 14 14 13 12 12 11 11 10 10 9 9 10 10 9
11 8 4 2 1 3 6 7 8 8 6 6 7 10 8 7 9 5 4 5 9 11 12 11 11 12 12 12 13 13 14 14 14 13 14 14 14 14 14 13 11 11 10 9 9 9 9 9 9
6 4 3 0 4 6 7 6 6 7 6 6 7 8 8 8 6 7 6 7 9 11 12 11 11 11 12 13 13 14 13 14 14 13 13 14 14 14 14 13 12 10 10 10 10 10 9 9 8
4 3 1 2 4 6 6 6 6 5 5 7 9 9 9 9 9 8 7 8 8 10 11 11 11 12 12 13 13 13 13 13 13 13 13 13 14 14 14 14 13 12 10 10 10 10 9 9 8
3 3 1 2 4 6 4 4 5 6 7 6 9 9 6 8 7 7 7 7 8 9 10 12 11 12 12 12 12 12 12 13 13 13 13 13 14 14 14 13 13 13 12 10 9 9 9 9 9
4 3 1 3 4 4 4 5 5 6 6 5 6 7 7 8 6 6 7 7 7 8 8 9 9 10 11 11 11 11 11 11 11 11 11 12 13 14 14 13 12 11 11 10 10 10 10 10 9
4 2 1 2 4 3 5 5 5 6 5 5 5 6 7 8 7 6 6 6 6 6 6 7 7 8 9 9 8 8 8 8 8 8 9 10 11 12 13 13 12 11 10 10 10 10 10 9 8
3 1 1 2 3 3 5 5 4 5 7 7 9 9 10 11 9 7 5 5 4 5 5 5 6 6 7 7 7 6 6 5 5 5 6 6 7 9 10 11 11 11 11 10 10 9 8 7 7
0 1 2 3 3 3 4 4 3 4 6 6 9 11 10 9 8 6 5 5 4 4 4 4 5 5 6 6 6 4 4 4 4 5 5 5 7 8 9 8 9 9 9 8 8 7 7 5 5
1 1 3 4 4 4 3 3 2 3 4 5 8 9 8 7 6 5 5 5 4 4 3 4 5 5 5 4 4 3 3 3 4 6 7 7 6 6 5 4 4 5 6 5 6 5 5 5 5
2 2 3 3 3 3 2 2 2 3 4 6 7 8 8 6 5 4 5 4 4 4 3 3 4 5 5 4 3 3 3 3 3 5 6 6 3 3 3 4 4 4 4 5 4 4 6 7 7
2 2 3 3 2 2 2 2 1 3 5 5 7 7 7 6 4 4 4 4 5 4 4 4 4 4 5 3 1 3 3 3 4 5 6 7 3 3 3 3 4 5 5 5 4 5 6 6 6
3 3 2 1 1 1 2 2 2 4 6 6 7 7 6 6 5 4 3 3 4 5 5 4 4 4 3 3 3 3 2 4 4 4 5 7 5 4 3 3 3 3 4 4 5 5 5 5 5
4 4 3 3 3 3 1 1 3 5 7 6 7 6 6 5 4 4 3 4 3 5 5 4 3 4 3 4 3 3 3 4 3 3 5 7 6 5 4 3 3 3 5 5 5 5 4 5 5
6 5 4 4 5 4 3 2 3 4 5 6 6 6 5 4 4 3 3 3 3 5 5 5 3 4 4 3 3 3 3 3 3 4 5 5 6 7 4 3 3 5 5 4 4 4 5 4 4
6 5 4 4 5 3 4 2 3 4 5 5 6 6 6 5 5 4 3 3 4 4 5 5 4 4 4 3 3 3 3 3 3 4 4 5 6 6 4 3 3 5 4 3 4 4 4 3 3
3 3 3 3 4 5 4 4 4 6 6 6 6 6 6 6 5 5 4 4 4 4 5 5 5 4 3 2 2 2 2 2 3 3 3 4 5 6 4 2 3 4 3 3 4 4 3 2 2
6 5 4 2 2 4 5 5 5 6 6 5 5 7 7 6 6 6 5 5 4 4 4 5 4 4 3 2 2 2 1 2 2 2 3 4 4 5 3 3 3 3 3 3 3 3 3 2 2
7 6 3 2 2 4 5 7 6 7 7 6 6 6 8 7 6 6 6 5 4 4 4 4 4 4 4 2 2 2 2 2 3 2 3 3 4 5 3 3 3 3 2 3 3 3 2 1 2
7 5 3 3 5 6 7 7 7 6 7 6 6 5 5 7 7 7 6 6 4 4 4 3 3 4 4 3 2 2 2 2 2 2 2 2 3 4 3 3 2 2 3 2 3 3 2 1 1
6 4 5 5 6 5 6 4 6 8 8 7 6 5 4 5 6 6 6 6 5 4 4 4 4 3 3 4 3 3 2 2 2 2 2 1 3 2 2 2 2 2 3 3 2 2 1 1 1
5 5 8 9 8 8 9 7 4 8 8 7 6 6 5 4 5 5 5 6 6 5 4 3 4 3 2 3 4 3 2 2 2 3 3 2 2 2 2 2 2 2 2 2 2 2 1 1 1
5 7 9 9 7 8 9 7 2 4 6 7 7 6 5 5 5 5 5 6 5 5 4 3 3 3 3 3 3 3 3 3 3 2 3 2 2 1 1 2 2 2 2 1 2 1 1 1 1
5 4 3 4 5 5 3 4 1 2 3 4 6 5 4 5 5 5 5 5 5 5 4 3 3 2 3 2 2 3 3 3 3 3 3 3 2 1 1 1 2 2 2 1 1 1 1 1 1
7 7 4 3 4 4 4 4 3 4 4 3 4 5 5 5 6 6 5 5 5 5 4 3 3 3 2 2 1 2 3 2 1 2 2 3 2 2 2 1 1 1 2 2 1 1 0 0 0
5 6 7 7 9 7 4 2 3 4 4 4 4 4 5 5 6 6 6 5 5 5 4 4 4 3 3 2 1 2 2 2 2 1 1 2 2 2 3 2 2 2 2 2 1 1 0 0 0
6 6 4 4 5 6 5 4 2 4 3 3 3 2 4 5 5 6 6 5 4 4 3 3 3 3 3 2 1 1 2 1 1 2 2 2 2 2 3 3 3 2 2 2 1 1 0 0 0
7 7 6 5 6 5 5 2 3 2 3 3 4 4 4 5 6 6 5 5 4 4 3 3 3 3 2 2 1 1 1 1 1 1 1 2 2 3 3 3 3 3 2 2 2 1 1 1 1
6 7 7 5 6 6 6 3 2 3 2 1 2 4 4 5 5 5 5 5 5 4 3 3 3 2 2 2 2 1 0 1 1 1 1 2 2 2 2 2 3 3 3 3 2 2 1 1 1
Wind_Direction
282 261 249 258 258 193 72 71 77 65 63 56 52 61 64 54 54 89 134 88 86 91 85 67 53 53 51 52 54 55 53 51 52 53 53 53 56 61 70 76 78 83 88 89 88 87 92 93 91
284 282 276 247 257 98 79 76 78 72 73 74 61 66 69 67 75 96 102 84 88 87 79 68 60 56 55 55 55 56 55 54 54 55 56 55 56 58 65 70 73 79 85 89 90 91 92 92 93
269 268 265 261 17 70 83 77 84 78 71 75 75 60 58 68 78 96 108 99 90 86 82 75 67 62 58 58 58 57 57 56 57 58 59 58 58 60 62 64 70 76 79 84 89 92 93 92 92
274 261 244 298 57 68 91 97 95 91 75 77 86 76 70 66 83 106 110 94 93 91 88 83 75 70 66 64 62 60 59 57 58 60 62 62 63 62 62 62 68 77 81 85 88 91 91 88 84
247 258 234 105 82 77 80 97 99 92 79 78 88 91 86 80 92 102 97 90 90 95 97 94 86 80 75 70 65 63 62 60 60 62 63 63 63 64 64 63 65 69 79 84 87 88 89 85 78
272 253 227 122 99 94 88 94 98 94 86 93 102 100 95 105 98 94 92 88 90 96 101 107 99 92 84 77 72 68 65 63 64 65 66 65 64 66 67 67 67 66 71 81 86 91 89 87 83
273 283 197 120 98 90 92 70 79 87 79 66 87 101 113 108 101 100 97 89 85 91 104 114 116 107 95 87 81 76 71 69 70 69 70 68 66 67 68 68 68 67 69 75 82 87 89 87 85
292 307 109 108 109 96 94 85 75 80 75 55 69 106 125 127 124 105 95 91 90 89 96 108 113 112 112 105 93 87 80 75 76 72 74 75 72 70 69 67 67 65 68 83 93 97 96 94 92
277 313 34 62 105 102 107 103 84 85 83 70 72 90 116 131 130 120 114 100 90 92 101 109 111 108 109 114 103 103 96 84 80 74 78 84 80 78 74 73 71 66 69 84 97 102 102 103 98
183 65 52 41 69 94 101 100 117 117 99 98 94 98 117 132 131 128 126 118 105 92 89 100 107 111 105 95 102 98 88 89 81 71 80 77 72 78 82 84 78 73 74 86 96 101 102 99 97
117 111 66 50 52 67 86 85 70 106 119 123 120 123 129 129 127 129 121 109 107 105 94 95 108 106 104 95 94 89 73 64 58 59 65 63 67 79 86 90 85 76 73 72 86 97 99 98 98
119 67 59 67 55 54 61 62 75 78 94 115 125 132 136 140 135 126 116 109 106 97 98 96 94 103 99 91 88 83 68 58 50 48 70 64 50 51 61 73 60 65 58 54 61 64 62 70 73
120 111 87 73 68 74 96 105 106 119 121 127 132 135 143 143 135 118 121 133 127 124 107 94 87 91 102 110 115 93 73 70 68 41 57 69 60 62 54 67 63 58 56 55 52 57 53 53 57
127 117 121 138 169 157 132 154 180 154 145 147 145 146 150 149 145 142 147 136 131 124 116 107 107 100 107 109 99 97 92 80 75 52 57 69 63 67 68 61 64 58 63 64 68 67 57 56 56
168 172 178 189 189 175 168 180 171 162 153 161 158 154 154 151 153 166 156 138 140 122 114 107 108 95 89 87 87 85 76 80 66 54 58 61 64 64 63 64 62 58 62 66 70 70 68 70 66
205 196 200 186 187 195 224 225 157 144 169 171 170 161 161 159 165 167 147 150 142 122 117 111 100 97 89 83 76 75 74 72 66 57 52 55 63 68 63 63 60 54 59 60 69 66 63 59 60
215 213 200 183 194 197 219 234 183 179 192 184 181 170 171 171 172 169 151 144 133 124 119 116 99 87 80 87 86 72 71 72 68 61 47 50 60 68 69 64 61 56 54 58 68 61 69 71 71
262 253 227 215 192 220 228 228 202 196 199 194 193 180 171 171 173 165 156 143 136 130 120 113 105 97 94 104 100 88 77 75 71 71 59 50 63 67 68 74 67 64 66 64 70 70 63 69 73
276 261 241 241 211 237 244 234 219 206 196 194 195 177 172 173 172 161 146 135 137 132 126 125 122 122 113 104 106 109 109 106 92 79 70 57 62 73 74 79 76 79 82 84 79 79 68 58 64
270 270 250 247 271 267 250 248 223 201 193 187 196 189 176 172 172 160 147 143 141 130 127 139 135 132 118 101 127 129 123 122 117 100 83 71 65 69 75 98 91 89 85 78 75 71 68 41 63
270 280 283 284 280 259 252 246 220 195 187 179 186 191 180 170 169 165 157 150 147 139 144 132 127 121 124 123 117 117 107 99 100 100 92 82 81 74 63 65 93 113 108 101 96 90 79 61 9
273 305 291 266 262 259 244 259 218 196 186 183 181 182 184 167 162 162 156 152 149 144 140 135 128 123 127 135 132 135 139 148 157 140 134 128 99 93 82 70 76 88 100 105 122 117 103 101 42
287 296 278 262 258 266 253 257 222 182 186 186 184 179 178 172 164 155 157 151 148 145 142 144 136 136 129 124 136 146 133 141 141 131 135 143 127 100 91 80 72 91 98 102 86 102 96 85 83
271 273 269 250 248 252 238 243 232 186 188 182 179 180 169 165 153 147 147 137 140 139 140 144 136 139 132 121 142 157 146 145 141 144 147 147 141 150 117 104 93 91 102 96 89 98 111 113 80
258 263 271 237 219 242 232 236 207 126 132 157 165 171 160 145 141 142 140 139 138 140 145 150 142 132 129 150 165 151 151 158 167 175 164 153 150 146 162 140 132 134 124 106 97 85 84 121 142
250 244 258 276 275 284 255 224 142 102 100 112 139 148 157 150 145 143 144 147 149 149 152 157 159 149 147 166 168 135 137 155 190 191 161 160 159 158 148 131 134 126 119 106 102 99 48 89 94
259 258 270 281 284 277 244 195 139 124 120 128 134 145 162 152 146 144 147 154 152 156 160 159 161 157 152 157 161 143 143 152 176 210 156 122 128 141 128 140 131 127 124 119 118 110 66 76 56
259 279 280 266 281 277 266 246 213 159 157 151 148 153 161 150 151 141 145 148 148 153 150 141 134 139 136 141 178 149 147 146 175 178 145 134 139 137 141 146 142 142 133 121 109 112 359 71 2
229 250 255 261 263 278 286 322 31 93 131 170 182 173 160 152 152 148 145 146 143 136 136 138 130 120 126 131 105 90 110 143 144 168 154 138 142 143 144 148 149 147 141 138 135 170 202 174 227
239 247 256 262 267 271 276 269 20 49 53 141 165 153 147 144 143 140 140 140 139 145 149 136 126 117 126 135 128 120 127 141 143 163 165 151 148 152 160 158 155 153 152 157 159 187 218 193 216
Height
1490 1490 1491 1492 1493 1495 1497 1492 1488 1490 1491 1493 1494 1494 1499 1503 1509 1520 1519 1517 1516 1515 1513 1512 1511 1510 1509 1508 1507 1506 1506 1505 1504 1503 1501 1499 1497 1494 1494 1497 1500 1502 1503 1505 1506 1507 1508 1509 1510
1490 1492 1493 1493 1495 1503 1501 1492 1492 1493 1494 1495 1496 1498 1501 1507 1512 1516 1517 1518 1517 1516 1514 1513 1512 1512 1511 1510 1509 1508 1507 1507 1506 1505 1503 1502 1500 1499 1499 1500 1502 1503 1505 1506 1507 1508 1509 1510 1511
1491 1493 1494 1491 1494 1500 1500 1494 1493 1494 1496 1496 1499 1502 1506 1511 1514 1516 1518 1519 1518 1517 1515 1514 1514 1513 1512 1512 1511 1510 1509 1509 1508 1507 1506 1505 1504 1503 1503 1503 1504 1504 1505 1506 1507 1509 1510 1511 1512
1493 1494 1493 1494 1497 1493 1493 1493 1494 1496 1497 1498 1500 1505 1511 1514 1516 1518 1519 1519 1519 1518 1517 1516 1515 1514 1514 1513 1513 1512 1511 1511 1510 1509 1508 1508 1507 1506 1505 1505 1505 1505 1506 1507 1508 1509 1511 1512 1513
1494 1494 1494 1498 1497 1493 1492 1493 1495 1497 1498 1500 1502 1509 1514 1517 1517 1519 1520 1520 1520 1519 1518 1517 1516 1516 1515 1515 1515 1514 1513 1513 1512 1511 1511 1510 1509 1508 1507 1507 1506 1506 1506 1507 1508 1510 1511 1512 1514
1495 1492 1499 1502 1497 1494 1494 1494 1496 1498 1500 1502 1504 1509 1516 1518 1519 1520 1520 1521 1520 1520 1519 1518 1518 1518 1517 1517 1516 1516 1515 1515 1514 1513 1513 1512 1511 1510 1509 1508 1508 1507 1507 1508 1509 1510 1512 1513 1514
1495 1493 1497 1498 1499 1497 1495 1496 1497 1499 1501 1503 1505 1510 1516 1519 1520 1521 1521 1522 1521 1521 1520 1520 1519 1519 1519 1518 1518 1518 1517 1517 1516 1515 1515 1514 1513 1512 1511 1510 1509 1508 1507 1506 1508 1510 1512 1514 1515
1494 1493 1496 1497 1500 1500 1497 1498 1500 1501 1504 1505 1506 1510 1516 1519 1520 1521 1522 1522 1522 1522 1522 1521 1521 1521 1520 1520 1520 1519 1519 1518 1518 1518 1517 1516 1515 1514 1513 1512 1511 1508 1505 1503 1506 1510 1513 1515 1517
1494 1498 1501 1499 1499 1499 1497 1499 1502 1503 1505 1507 1508 1511 1515 1518 1520 1521 1522 1523 1523 1523 1523 1522 1522 1522 1522 1521 1521 1521 1520 1520 1520 1519 1519 1518 1517 1516 1515 1514 1513 1510 1506 1503 1507 1511 1515 1517 1519
1495 1501 1500 1496 1495 1497 1498 1500 1502 1504 1507 1509 1511 1513 1516 1518 1519 1521 1522 1523 1523 1524 1524 1524 1523 1523 1523 1523 1522 1522 1522 1522 1521 1521 1521 1520 1520 1519 1518 1516 1515 1513 1511 1510 1512 1515 1517 1519 1520
1495 1498 1497 1497 1497 1499 1500 1502 1503 1504 1508 1510 1512 1514 1517 1518 1520 1521 1522 1523 1524 1524 1524 1524 1524 1524 1524 1523 1523 1523 1523 1523 1523 1523 1522 1522 1521 1520 1519 1519 1518 1517 1516 1516 1517 1519 1520 1522 1523
1496 1497 1498 1499 1500 1501 1502 1503 1505 1506 1509 1511 1512 1514 1516 1518 1520 1521 1522 1523 1524 1524 1524 1525 1525 1525 1524 1524 1524 1524 1524 1524 1524 1524 1523 1523 1522 1522 1521 1521 1520 1520 1520 1520 1521 1522 1523 1524 1525
1497 1498 1500 1501 1502 1503 1503 1505 1506 1507 1509 1511 1512 1515 1516 1518 1519 1521 1522 1523 1523 1524 1524 1525 1525 1525 1525 1525 1525 1525 1525 1525 1525 1525 1525 1524 1523 1523 1523 1523 1523 1523 1523 1523 1524 1525 1525 1526 1527
1498 1499 1501 1502 1502 1503 1504 1504 1506 1507 1509 1511 1512 1514 1516 1517 1519 1520 1521 1522 1523 1523 1524 1524 1525 1525 1525 1525 1525 1525 1526 1526 1526 1526 1526 1525 1525 1525 1524 1524 1524 1525 1526 1526 1526 1527 1527 1527 1528
1498 1500 1501 1501 1501 1503 1504 1505 1505 1506 1508 1510 1512 1513 1515 1517 1518 1519 1520 1521 1522 1523 1523 1524 1525 1525 1525 1525 1525 1526 1526 1526 1526 1526 1526 1526 1526 1526 1526 1526 1526 1526 1527 1528 1528 1529 1529 1529 1530
1496 1499 1505 1500 1500 1501 1506 1510 1505 1506 1507 1509 1510 1512 1514 1516 1517 1519 1520 1520 1521 1522 1522 1523 1524 1524 1525 1525 1525 1525 1526 1526 1526 1527 1527 1527 1527 1527 1527 1527 1527 1528 1528 1529 1529 1530 1530 1531 1531
1496 1502 1503 1500 1497 1498 1502 1506 1503 1504 1506 1507 1509 1511 1513 1515 1516 1518 1518 1519 1520 1521 1521 1522 1522 1523 1524 1524 1525 1525 1525 1526 1526 1527 1527 1527 1527 1527 1527 1528 1528 1529 1529 1530 1530 1531 1531 1532 1532
1501 1499 1500 1500 1497 1497 1500 1502 1501 1503 1504 1506 1507 1509 1511 1513 1514 1516 1517 1518 1519 1520 1520 1521 1521 1522 1522 1523 1524 1524 1525 1525 1526 1526 1527 1527 1527 1528 1528 1528 1529 1529 1529 1530 1531 1531 1532 1533 1533
1493 1495 1499 1497 1493 1497 1499 1500 1499 1500 1501 1503 1505 1506 1509 1511 1513 1514 1516 1517 1518 1519 1520 1520 1520 1521 1521 1522 1523 1523 1524 1524 1525 1526 1526 1527 1527 1527 1528 1528 1529 1530 1530 1530 1531 1532 1533 1534 1534
1491 1495 1497 1496 1493 1495 1498 1498 1495 1496 1498 1500 1502 1504 1506 1508 1511 1513 1514 1515 1517 1517 1518 1519 1519 1520 1520 1521 1522 1523 1523 1524 1524 1525 1526 1526 1527 1527 1528 1529 1529 1530 1530 1531 1532 1533 1533 1534 1535
1492 1495 1497 1498 1495 1493 1496 1499 1494 1493 1495 1498 1500 1502 1504 1506 1508 1510 1512 1513 1515 1516 1517 1518 1518 1519 1519 1520 1520 1521 1522 1523 1523 1524 1525 1526 1526 1527 1528 1529 1529 1530 1530 1531 1532 1533 1534 1534 1536
1496 1491 1492 1495 1501 1501 1497 1508 1495 1490 1492 1494 1497 1500 1502 1504 1506 1508 1510 1511 1513 1514 1516 1516 1517 1518 1518 1518 1519 1520 1520 1521 1522 1523 1523 1525 1526 1527 1527 1528 1529 1530 1530 1531 1532 1533 1534 1535 1535
1493 1490 1491 1493 1497 1500 1495 1500 1493 1486 1492 1492 1494 1497 1500 1502 1504 1506 1508 1509 1511 1512 1514 1515 1516 1516 1517 1517 1518 1519 1520 1520 1521 1522 1523 1524 1525 1526 1527 1527 1528 1529 1530 1530 1531 1532 1533 1534 1535
1490 1491 1490 1489 1496 1506 1493 1497 1497 1487 1487 1488 1491 1495 1497 1500 1502 1504 1506 1508 1509 1511 1512 1513 1514 1515 1516 1516 1517 1518 1518 1519 1520 1521 1522 1523 1524 1525 1526 1527 1527 1528 1529 1530 1531 1531 1532 1533 1534
1491 1499 1509 1508 1509 1503 1484 1490 1493 1481 1480 1483 1488 1492 1495 1498 1500 1503 1504 1506 1507 1509 1510 1512 1513 1514 1515 1515 1516 1516 1517 1518 1519 1520 1521 1522 1522 1523 1524 1525 1526 1526 1527 1528 1529 1530 1531 1532 1533
1492 1495 1510 1518 1512 1500 1487 1491 1487 1479 1481 1483 1487 1490 1494 1496 1498 1501 1503 1504 1506 1507 1509 1510 1511 1512 1513 1514 1514 1515 1516 1516 1518 1519 1520 1520 1521 1522 1523 1523 1524 1525 1526 1527 1528 1529 1530 1531 1532
1493 1493 1490 1500 1499 1501 1491 1484 1482 1479 1481 1483 1486 1489 1492 1494 1496 1499 1501 1503 1504 1505 1507 1508 1509 1510 1511 1512 1513 1513 1514 1515 1516 1517 1518 1519 1519 1520 1521 1522 1523 1524 1524 1525 1526 1527 1528 1529 1530
1489 1490 1495 1501 1510 1510 1495 1490 1490 1484 1483 1484 1486 1488 1490 1493 1495 1497 1499 1501 1502 1504 1506 1507 1508 1508 1509 1510 1511 1512 1512 1513 1514 1515 1515 1516 1517 1518 1519 1520 1521 1522 1523 1524 1525 1526 1527 1527 1528
1490 1492 1493 1497 1498 1508 1508 1500 1479 1480 1481 1483 1485 1487 1489 1491 1493 1495 1497 1499 1501 1502 1504 1505 1505 1506 1507 1508 1509 1509 1510 1511 1512 1513 1514 1515 1516 1517 1517 1518 1519 1520 1521 1522 1522 1524 1525 1525 1526
1485 1489 1492 1503 1501 1496 1502 1501 1479 1480 1480 1481 1483 1485 1487 1489 1492 1494 1496 1498 1499 1501 1502 1503 1503 1504 1505 1506 1507 1507 1508 1509 1510 1511 1512 1513 1514 1515 1516 1517 1517 1518 1519 1520 1520 1521 1522 1523 1524